Powrót do katalogu

FENGYUN 1C DEB

AktywnyLEO
NORAD 37900·DEBRIS·🇨🇳 China

Wystrzelony May 10, 1999 z Taiyuan Satellite Launch Center

Loading…

Następne Przeloty (najbliższe 24 godziny)

TLE

ŚwieżeSource: Space-Track

Epoka: Sep 13, 2026, 06:58 UTC

1 37900U 99025EMZ 26256.29069914  .00002076  00000-0  10983-2 0  9993
2 37900 102.3080  73.9683 0207785 279.3017  78.4696 14.05074072636688

Śledź FENGYUN 1C DEB w czasie rzeczywistym z AllMySat

Download on the App Store